Miscellaneous Local Product
Issued by NWS Hastings, NE

Home | Current Version | Previous Version | Text Only | Print | Product List | Glossary Off
Versions: 1 2 3 4 5 6 7 8 9 10 11 12 13 14 15 16 17 18 19 20 21 22 23 24 25 26 27 28 29 30 31 32 33 34 35 36 37 38 39 40 41 42 43 44 45 46 47 48 49 50

000
AXUS43 KGID 270702
MISGRI

GID CWA HOURLY WEATHER ROUNDUP
NATIONAL WEATHER SERVICE HASTINGS NE
200 AM CDT MON JUL 27 2015

NOTE: "FAIR" INDICATES FEW OR NO CLOUDS BELOW 12,000 FEET WITH NO
SIGNIFICANT WEATHER AND/OR OBSTRUCTIONS TO VISIBILITY.

...SOUTH CENTRAL NEBRASKA...

CITY           SKY/WX    TMP DP  RH WIND       PRES   REMARKS
GRAND ISLAND   CLOUDY    76  65  68 W10       29.88F
HASTINGS       CLOUDY    74  65  73 W8        29.90F
KEARNEY        CLOUDY    72  64  78 NW10      29.87F
ORD            CLOUDY    71  68  90 CALM      29.90F
YORK           CLOUDY    79  75  89 S7        29.88F
AURORA         CLOUDY    77  77  98 SW5       29.87F
LEXINGTON      LGT RAIN  73  64  73 SE12G21   29.89F
HOLDREGE       LGT RAIN  70  64  79 SE8       29.87F
HEBRON         CLOUDY    80  67  65 W12G21    29.90F

...NEBRASKA PANHANDLE...

CITY           SKY/WX    TMP DP  RH WIND       PRES   REMARKS
CHADRON        PTCLDY    71  57  61 VRB6      29.89R
ALLIANCE       MOCLDY    62  58  86 S8        29.96S
SCOTTSBLUFF    MOCLDY    66  60  81 E10       29.96S
SIDNEY         MOCLDY    64  61  90 S12       29.99F

...WESTERN AND NORTH CENTRAL NEBRASKA...

CITY           SKY/WX    TMP DP  RH WIND       PRES   REMARKS
VALENTINE      CLOUDY    72  62  71 S6        29.91F
AINSWORTH      CLOUDY    70  63  78 SE5       29.92S
ONEILL         CLOUDY    72  68  87 NE7       29.89F
BROKEN BOW     CLOUDY    70  66  87 N3        29.93F
IMPERIAL       CLOUDY    65  61  87 SE5       29.96R
NORTH PLATTE   CLOUDY    69  61  75 CALM      29.96R
MCCOOK         CLOUDY    69  64  84 E8        29.94R

...EASTERN NEBRASKA...

CITY           SKY/WX    TMP DP  RH WIND       PRES   REMARKS
NORFOLK        CLOUDY    78  76  93 SE9       29.87F
SO SIOUX CITY  CLOUDY    77  73  87 SE7       29.89S
TEKAMAH        CLOUDY    78  76  93 NE5       29.89F
COLUMBUS       CLOUDY    77  73  88 E3        29.88F
ALBION         CLOUDY    76  74  92 NW10      29.91S FOG
OMAHA EPPLEY   CLOUDY    80  76  87 SE7       29.89S
OFFUTT AFB     CLOUDY    78  76  93 E7        29.88S
MILLARD        CLOUDY    80  77  90 SE5       29.90R
LINCOLN        CLOUDY    81  76  84 SE6       29.88F
BEATRICE       CLOUDY    79  75  86 S6        29.89F
FALLS CITY     MOCLDY    77  76  96 SE3       29.89S

...NORTHERN KANSAS...

CITY           SKY/WX    TMP DP  RH WIND       PRES   REMARKS
GOODLAND       CLOUDY    66  64  93 S12       29.98F
HILL CITY      LGT RAIN  70  67  90 S10G17    29.94F
NORTON         SUNNY     70  61  73 S10       29.91R
SMITH CENTER   LGT RAIN  70  64  83 SE12      29.93F
HAYS           CLOUDY    70  61  73 N14       29.96F THUNDER
RUSSELL        LGT RAIN  70  67  90 NW13      29.95F
CONCORDIA      CLOUDY    76  67  73 W8        29.93S
SALINA         CLOUDY    84  69  60 W20G25    29.95R
TOPEKA         MOCLDY    79  75  87 CALM      29.90F



USA.gov is the U.S. government's official web portal to all federal, state and local government web resources and services.